Terminal Aerodrome Forecast
Issued by NWS Medford, OR

Home | Current Version | Previous Version | Text Only | Print | Product List | Glossary On
Versions: 1 2 3 4 5 6 7 8 9 10 11 12
000
FTUS46 KMFR 250532
TAFMFR
TAF
KMFR 250532Z 2506/2606 VRB02KT P6SM SKC
     FM260000 30009KT P6SM VCTS SCT060CB BKN250=

USA.gov is the U.S. government's official web portal to all federal, state and local government web resources and services.